EHI
0 0 0 0 0 0 0 0 0 0 0 0 0 1 5 11 17 19 19 24 30 29 25 21 20 22 26 27 27 27 23 15 10 9 10 12 11 8 5 3 3 2 1 0
0 0 0 0 0 0 0 0 0 0 0 0 1 2 5 12 20 22 22 27 33 33 28 24 23 23 24 25 26 28 25 18 14 13 13 12 11 8 6 4 3 1 0 0
0 0 0 0 0 0 0 0 0 0 0 1 2 3 6 13 21 24 25 30 36 37 32 26 23 22 22 23 27 29 27 21 19 19 17 14 11 9 8 5 3 2 1 1
0 0 0 0 0 0 0 0 0 0 1 2 5 7 10 14 20 24 27 31 36 38 34 27 23 21 21 23 26 28 26 23 22 21 19 15 11 10 9 5 3 3 2 3
0 0 0 0 0 0 0 0 0 0 2 5 9 12 14 16 18 22 27 31 35 38 35 29 26 24 22 22 24 26 24 22 21 19 16 14 11 9 7 5 3 4 5 5
0 0 0 0 0 0 0 0 0 2 5 10 11 10 12 16 20 24 28 32 36 39 36 31 30 28 25 23 23 23 22 21 19 16 14 12 11 9 6 5 4 5 6 6
0 0 0 1 1 1 0 0 1 4 8 13 12 8 11 20 26 30 34 35 38 38 35 32 31 29 26 23 20 19 19 19 16 14 12 10 9 8 7 5 5 6 5 5
0 0 0 1 2 1 0 1 3 7 12 15 15 14 17 23 31 37 40 40 39 38 34 30 30 29 25 20 17 16 16 16 14 11 9 7 6 5 4 4 5 6 4 4
0 0 0 1 3 3 2 2 4 9 14 16 18 20 22 25 31 37 41 42 40 37 32 28 27 26 22 17 16 16 15 13 10 7 5 4 3 2 1 2 3 4 3 2
0 0 1 2 4 5 5 5 6 9 12 16 20 24 26 27 30 35 39 40 39 37 32 27 23 21 18 16 16 16 14 10 6 3 1 1 1 0 0 0 1 1 1 1
0 0 1 2 4 6 8 9 9 9 11 16 22 26 28 28 29 33 36 38 39 37 33 27 20 16 14 14 15 15 12 8 4 1 0 0 0 0 0 0 0 0 0 0
0 0 0 1 3 6 9 11 10 9 11 17 20 23 25 25 27 31 35 36 36 33 29 22 16 12 10 12 13 13 10 6 2 1 0 0 0 0 0 0 0 0 0 0
0 0 0 0 3 6 8 10 9 9 12 14 14 15 18 20 22 26 30 30 28 25 21 15 11 8 7 9 10 11 9 4 1 0 0 0 0 0 0 0 0 0 0 0
0 0 0 1 3 6 8 9 10 10 10 9 8 10 14 15 17 21 24 23 22 20 16 11 8 6 5 5 6 8 7 3 0 0 0 0 0 0 0 0 0 0 0 0
0 0 1 3 6 8 9 9 9 10 9 7 6 8 12 13 15 17 18 18 19 17 13 9 6 4 3 3 3 4 4 2 1 0 0 0 0 0 0 0 0 0 0 0
0 0 1 4 6 7 7 6 7 8 8 6 6 7 10 11 11 12 12 13 15 14 10 7 5 2 1 2 2 3 3 2 1 0 0 0 0 0 0 0 0 0 0 0
0 0 1 2 3 3 3 4 5 6 7 6 5 7 9 10 10 9 9 9 10 8 5 4 3 2 2 2 3 3 3 2 1 0 0 0 0 0 0 0 0 0 0 0
0 0 0 1 1 0 1 2 3 3 4 4 5 7 10 11 11 9 7 6 5 3 1 1 1 2 3 3 3 3 3 2 1 0 0 0 0 0 0 0 0 0 0 0
0 0 0 0 0 0 1 2 2 2 2 3 6 9 11 11 10 8 4 3 1 0 0 0 0 1 2 2 2 3 3 3 1 1 0 0 0 0 0 0 0 0 0 0
0 0 0 0 0 0 0 1 2 2 2 3 6 9 10 9 7 4 2 1 0 0 0 0 0 0 1 1 1 1 3 3 3 2 1 0 0 0 0 0 0 0 0 0
0 0 0 0 0 0 0 0 2 3 3 5 7 8 8 6 4 2 0 0 0 0 0 0 0 0 0 0 0 1 2 2 2 2 1 0 0 0 0 0 0 0 0 0
0 0 0 0 0 0 0 1 2 3 4 4 5 5 4 3 2 1 0 0 0 0 0 0 0 0 0 0 0 0 1 1 1 1 0 0 0 0 0 0 0 0 0 0
0 0 0 0 0 0 0 1 2 2 2 2 2 1 1 1 1 0 0 0 0 0 0 0 0 0 0 0 0 0 0 0 0 0 0 0 0 0 0 0 0 0 0 0
0 0 0 0 0 0 0 1 1 1 1 0 0 0 0 0 0 0 0 0 0 0 0 0 0 0 0 0 0 0 0 0 0 0 0 0 0 0 0 0 0 0 0 0
0 0 0 0 0 0 0 0 0 0 0 0 0 0 0 0 0 0 0 0 0 0 0 0 0 0 0 0 0 0 0 0 0 0 0 0 0 0 0 0 0 0 0 0
0 0 0 0 0 0 0 0 0 0 0 0 0 0 0 0 0 0 0 0 0 0 0 0 0 0 0 0 0 0 0 0 0 0 0 0 0 0 0 0 0 0 0 0
0 0 0 0 0 0 0 0 0 0 0 0 0 0 0 0 0 0 0 0 0 0 0 0 0 0 0 0 0 0 0 0 0 0 0 0 0 0 0 0 0 0 0 0
Wind_Speed
4 4 3 4 5 6 6 8 9 9 9 10 8 7 6 5 6 6 6 6 6 6 6 6 6 6 6 6 7 7 7 7 5 5 5 5 5 5 5 5 5 4 5 4
1 2 3 3 5 7 5 5 6 4 8 7 4 3 4 6 8 8 8 7 7 7 8 8 8 8 7 7 7 8 8 7 6 6 6 5 5 5 5 5 5 5 5 5
3 2 0 5 6 6 5 5 7 8 9 3 3 7 9 9 9 9 9 9 9 9 8 8 8 8 8 8 7 8 7 7 7 7 6 5 6 6 6 5 5 5 5 5
2 2 6 10 3 4 5 5 6 5 5 6 7 6 5 6 8 8 8 8 8 8 7 6 6 7 7 8 8 8 7 7 7 7 7 6 6 6 5 5 5 4 5 5
4 4 5 6 2 3 4 4 3 4 3 2 1 2 1 3 5 7 7 7 7 8 8 8 8 9 9 8 8 8 8 7 7 8 8 7 6 5 5 5 5 4 4 5
5 5 7 8 4 2 3 3 2 2 3 3 4 2 6 4 4 4 5 5 6 7 8 9 9 10 10 9 8 7 7 7 7 7 8 7 7 6 5 5 5 5 5 4
4 4 7 7 5 1 4 7 3 3 5 5 5 6 4 4 4 5 5 6 7 8 8 8 10 10 10 9 7 7 7 7 7 6 7 7 7 5 6 6 6 5 5 5
4 4 7 3 1 3 6 3 2 3 4 4 3 2 2 4 5 6 6 7 8 8 7 7 9 10 10 8 7 8 9 8 8 7 7 7 8 6 5 6 6 5 5 5
7 7 5 2 3 4 3 3 3 3 4 3 3 2 3 4 5 6 7 7 7 8 8 7 7 9 10 8 9 10 10 9 8 7 7 7 7 7 5 4 4 3 4 4
2 5 5 4 4 4 3 4 4 4 3 3 3 4 4 4 5 5 6 7 7 9 9 7 6 6 8 9 9 10 10 9 8 7 7 6 5 5 5 4 4 4 4 3
2 4 5 4 3 4 4 3 2 1 1 3 4 4 4 4 5 6 5 5 7 9 9 8 7 7 8 9 10 10 10 8 7 7 7 6 5 3 4 3 3 4 4 4
5 5 3 5 5 4 4 4 2 1 1 1 3 4 4 4 4 5 6 6 7 8 9 8 7 7 7 8 10 11 9 8 6 6 6 6 6 5 7 5 5 5 4 4
6 4 5 6 6 4 4 4 3 1 1 2 1 3 3 3 4 5 6 7 7 7 8 8 8 8 7 7 8 9 9 8 6 6 6 6 6 6 5 5 7 6 5 5
6 3 3 4 5 4 3 3 2 1 0 2 2 3 3 3 4 5 6 6 7 7 7 7 8 7 6 7 7 8 8 8 7 6 6 5 5 5 5 5 4 3 3 5
5 5 6 4 4 3 1 0 1 0 1 1 3 4 5 5 5 5 6 7 8 8 7 7 7 6 6 6 7 7 7 6 6 6 5 5 5 5 5 5 4 4 3 3
4 3 2 3 3 2 1 1 2 2 2 2 3 4 4 5 6 6 7 7 8 8 7 7 7 6 7 7 7 6 5 9 8 6 6 5 5 6 5 5 5 4 4 3
3 4 3 3 3 3 2 2 2 2 2 3 4 5 6 7 7 7 6 6 7 7 6 6 6 6 6 7 7 5 5 7 10 7 5 5 5 5 5 5 5 4 3 4
5 5 4 4 4 3 2 1 1 2 2 3 5 6 6 7 8 7 7 6 7 6 5 4 5 6 6 6 5 5 5 5 6 6 6 5 5 5 5 5 5 5 3 4
3 3 3 2 3 3 3 2 2 2 2 3 5 6 6 6 7 7 7 7 7 6 4 4 7 7 6 7 7 5 5 6 5 5 5 6 5 5 5 5 5 4 4 4
1 1 2 1 1 2 2 1 2 2 2 4 5 5 5 6 7 7 7 5 3 3 5 6 6 6 6 7 8 5 6 6 6 5 5 5 5 5 5 5 5 4 4 4
1 0 1 2 2 2 1 2 2 2 3 5 6 7 6 5 6 7 6 4 2 4 5 7 5 5 5 6 7 5 6 6 6 6 5 5 5 5 5 5 5 4 4 4
1 2 2 3 3 3 2 2 3 3 4 5 6 6 7 6 6 5 4 3 4 5 5 4 4 6 7 7 5 6 6 6 5 5 5 5 5 5 5 5 5 4 4 4
3 3 3 3 3 3 3 4 4 4 4 5 6 6 6 5 4 5 4 3 4 6 5 4 6 9 9 6 5 6 6 6 5 5 5 5 5 5 4 5 4 4 4 4
3 3 3 3 4 5 4 3 3 3 3 4 4 4 5 5 3 2 3 5 6 7 5 6 9 10 8 5 5 5 5 5 5 5 5 4 4 4 4 4 4 4 4 5
2 2 3 3 3 2 2 2 3 4 4 3 3 3 3 3 3 4 4 6 7 7 5 6 9 9 6 5 5 5 5 5 5 5 4 4 4 4 4 4 4 4 4 4
2 1 1 1 1 1 1 2 2 2 3 3 3 2 2 3 4 4 4 5 6 6 5 5 5 6 5 5 5 5 4 5 5 4 4 4 4 4 4 4 5 4 3 3
1 1 1 2 2 1 1 2 2 1 2 3 2 2 3 3 4 4 5 5 5 4 4 4 4 4 5 5 5 4 4 4 4 4 4 4 4 4 4 5 4 3 3 3
Wind_Direction
212 221 192 197 196 185 183 183 185 223 227 244 234 219 210 188 172 168 171 168 165 164 162 155 152 152 151 147 145 144 141 139 142 133 122 114 106 100 96 92 90 89 87 77
232 245 223 232 214 201 208 193 210 228 250 247 236 196 192 185 179 184 184 179 174 169 166 165 163 160 153 150 147 142 142 141 136 127 123 119 113 106 98 91 86 85 86 85
223 283 27 251 217 197 206 199 181 209 235 229 208 201 201 194 190 193 190 183 179 177 175 172 167 161 157 150 141 139 139 138 136 133 127 123 119 110 103 96 92 87 82 83
153 121 220 242 241 197 198 222 213 224 236 212 214 211 205 190 186 189 183 181 179 171 165 158 150 145 140 137 139 139 138 140 139 136 130 122 114 111 106 102 97 91 82 79
136 176 261 289 255 178 181 240 221 216 236 244 134 74 306 210 185 188 183 178 176 168 158 149 146 142 137 138 140 141 145 147 146 142 133 127 123 118 112 106 94 88 87 85
138 160 219 244 266 236 136 255 249 189 197 173 125 158 243 212 173 171 165 160 157 150 145 146 145 141 139 143 146 153 152 147 141 138 133 131 128 122 110 107 102 95 83 76
157 194 250 256 285 90 153 237 254 210 207 185 191 217 226 173 164 157 153 150 147 148 152 150 144 142 143 147 158 151 137 130 127 127 128 127 120 117 118 116 110 102 93 76
152 179 244 283 44 168 227 264 249 228 217 208 223 239 167 156 154 148 144 143 145 148 149 146 149 148 150 157 150 136 132 131 128 125 126 125 121 116 116 120 118 114 102 85
188 209 237 269 241 263 251 262 257 234 238 201 189 191 166 160 155 154 152 150 146 145 142 141 152 154 153 151 141 136 133 132 129 122 118 127 128 127 121 120 124 125 115 107
250 268 279 287 284 294 274 264 269 255 242 189 181 171 159 158 155 149 148 149 144 142 142 144 152 148 144 142 143 138 138 137 134 131 126 117 117 124 128 140 143 139 136 133
267 286 311 312 308 305 314 321 319 314 252 178 158 166 167 167 158 151 144 143 143 145 147 147 145 139 139 143 143 139 139 138 136 133 130 122 112 108 126 130 160 155 156 153
232 236 236 275 293 305 317 312 311 341 19 94 154 159 154 158 152 144 141 137 137 138 139 142 142 140 143 147 146 142 142 144 144 141 136 135 126 96 67 84 100 115 132 142
240 255 246 261 278 282 288 294 300 285 190 166 142 143 139 138 135 134 135 139 141 142 140 139 141 143 147 149 147 147 149 150 148 147 147 148 145 139 121 77 76 89 110 125
242 242 266 263 266 281 281 295 325 21 74 157 136 122 119 116 127 134 141 145 135 132 132 137 138 139 139 145 147 147 146 150 150 152 152 154 153 146 142 142 131 93 73 102
256 231 228 248 271 277 265 208 100 108 141 128 131 135 135 131 129 130 130 129 127 128 131 134 134 137 139 145 150 151 148 149 146 143 144 146 143 137 138 140 138 129 114 101
260 257 229 227 247 252 213 179 181 214 186 159 148 139 133 125 122 118 120 130 133 136 138 139 142 145 144 146 147 147 146 147 144 143 143 145 145 142 144 146 148 150 151 148
235 248 226 222 230 225 225 215 203 211 203 172 161 148 132 125 121 120 124 126 126 126 131 140 143 139 141 143 147 148 144 146 145 143 150 154 151 152 153 154 157 159 160 156
233 238 231 218 206 196 222 217 179 204 223 194 163 148 142 144 142 138 132 122 114 112 118 133 138 137 139 142 145 144 143 146 152 153 150 149 149 150 150 153 158 158 146 141
236 228 227 224 187 173 180 194 197 202 215 167 151 152 151 148 141 134 130 130 134 135 136 135 138 139 140 143 140 136 138 141 142 139 136 139 142 144 149 153 156 156 152 148
257 242 215 205 133 157 177 185 164 173 177 153 143 141 142 142 138 134 131 134 147 150 144 139 138 136 136 137 135 134 136 139 138 136 136 140 144 147 148 151 154 156 158 162
110 126 139 123 108 108 130 141 138 144 151 151 151 151 148 141 137 135 133 135 136 133 134 133 133 133 133 134 133 135 137 137 138 140 142 144 143 146 151 154 158 163 167 169
66 90 92 96 91 75 71 99 109 114 128 133 136 136 134 136 135 128 126 138 140 136 135 136 137 136 135 132 130 132 134 136 137 139 143 146 149 155 161 163 167 172 174 174
52 66 70 78 84 80 69 75 87 100 119 134 140 143 142 140 140 139 138 136 136 138 137 138 137 135 134 130 130 134 138 140 141 145 149 154 158 161 165 170 172 172 173 174
65 61 57 64 75 80 75 68 80 91 102 112 123 133 136 130 121 125 129 138 139 136 135 139 138 137 136 132 133 138 142 144 145 147 149 153 157 159 163 166 170 173 174 174
84 78 69 70 75 82 106 106 94 91 97 97 96 104 120 134 143 140 134 137 139 136 134 136 137 140 140 135 138 143 148 150 150 150 153 156 159 160 161 165 172 175 176 179
101 105 104 108 115 116 113 109 110 115 111 106 101 103 111 116 122 123 128 132 132 133 133 134 139 142 141 141 145 150 151 151 153 157 161 161 161 162 165 171 177 179 179 180
61 70 83 73 61 80 109 115 121 122 124 128 124 123 126 125 124 128 133 134 134 133 131 133 140 147 147 147 148 147 148 151 156 160 162 163 165 169 172 175 177 176 176 174